sat.trackr.live / text

‹ back to catalog

STARLINK-3111

NORAD 49418 · 2021-104L

PAYLOAD ACTIVE UNKNOWN

§ Identity

Operator
Country
US
Launch date
2021-11-13
Launch site
AFETR
Launch vehicle
Mass (kg)
RCS (m²)

Purposes: comms

External: N2YO · Heavens-Above · Gunter

§ Orbital elements

Epoch: 2026-05-25T00:18:54.224640Z

Period
95.44 min
Inclination
53.2148°
Eccentricity
0.0001283
Mean motion
15.08841099 rev/d
Perigee alt
538.9 km
Apogee alt
540.6 km
Semi-major
6,917.9 km
B*
3.0940e-5
RAAN
246.4890°
Arg perigee
86.4802°
Mean anomaly
273.6337°
Rev number
25,014

§ Raw data

STARLINK-31111 49418U 21104L   26145.01312760  .00000205  00000+0  30940-4 0  99982 49418  53.2148 246.4890 0001283  86.4802 273.6337 15.08841099250144

JSON: /api/v1/satellites/49418 · /tle

For live sub-satellite position, see the globe view (requires WebGL).

§ Visibility from observer

Set your observer location to see the next 7 days of passes ≥ 10°. The values pass through the URL so the page stays shareable.

No JS? Fill the form by hand. The geolocation button needs JavaScript.